Latest Conditions
At L.F.Wade Int. Airport
Recorded at 3:55 am
Few Clouds
Temp.: 
15°C/59°F
Humidity: 
62%
Wind: 
SSE 3KT
or 3mph
UV Index: 
0
Island Observations
 
Observations
Thursday, February 21, 2019

Observations are in local time and taken at least once an hour, or upon the start and end of specified events such as showers and thunderstorms.

Time Sky / Weather Wind Speed/Gusts Temp. R.H. Pressure
     knots (mph)  °C (°F)  %  mb / "Hg
 03:55 Few Clouds  SSE 3/0 (3/0) 15(59) 62 1027 / 30.34
 02:55 Few Clouds  ESE 4/0 (5/0) 15(59) 60 1028 / 30.36
 01:55 Few Clouds  E 3/0 (3/0) 14(57) 64 1029 / 30.38
 00:55 Few Clouds  ENE 4/0 (5/0) 14(57) 66 1029 / 30.39
 23:55 Few Clouds  E 4/0 (5/0) 14(57) 65 1029 / 30.38
 22:55 Few Clouds  E 5/0 (6/0) 14(57) 63 1029 / 30.40
 21:55 Few Clouds  NE 5/0 (6/0) 15(59) 61 1030 / 30.42
 20:55 Few Clouds  ENE 6/0 (7/0) 15(59) 60 1030 / 30.41
 19:55 Partly Cloudy  NE 7/0 (8/0) 15(59) 59 1030 / 30.41
 18:55 Partly Cloudy  NNE 7/0 (8/0) 15(60) 61 1029 / 30.40
 17:55 Partly Cloudy  NNE 9/0 (10/0) 15(60) 59 1029 / 30.39
 16:55 Mostly Cloudy  N 9/0 (10/0) 16(61) 59 1029 / 30.38
 15:55 Mostly Cloudy  N 10/0 (12/0) 16(62) 58 1029 / 30.38
 14:55 Mostly Cloudy  NNE 9/0 (10/0) 17(63) 52 1028 / 30.37
 13:55 Mostly Cloudy  NNE 12/0 (14/0) 16(62) 52 1028 / 30.37
 12:55 Mostly Cloudy  N 11/0 (13/0) 16(61) 60 1029 / 30.40
 11:55 Mostly Cloudy  N 10/0 (12/0) 17(62) 54 1029 / 30.40
 10:55 Partly Cloudy  NNE 12/0 (14/0) 16(61) 51 1030 / 30.42
 09:55 Mostly Cloudy  NNE 11/0 (13/0) 15(60) 58 1030 / 30.42
 08:55 Mostly Cloudy  N 12/0 (14/0) 15(60) 58 1030 / 30.42
 07:55 Mostly Cloudy  N 11/0 (13/0) 15(59) 58 1029 / 30.39
 06:55 Mostly Cloudy  N 14/0 (16/0) 15(59) 58 1029 / 30.38
 05:55 Mostly Cloudy  N 13/0 (15/0) 15(59) 57 1028 / 30.37
 04:55 Mostly Cloudy  N 12/0 (14/0) 15(60) 62 1027 / 30.33
 03:55 Mostly Cloudy  N 12/0 (14/0) 16(60) 62 1027 / 30.34
 02:55 Mostly Cloudy  NNW 14/0 (16/0) 16(60) 61 1028 / 30.35
 01:55 Mostly Cloudy  NNW 13/0 (15/0) 16(61) 56 1028 / 30.35
 00:55 Mostly Cloudy  NNW 13/0 (15/0) 16(61) 55 1027 / 30.34
 23:55 Mostly Cloudy  N 13/0 (15/0) 16(61) 60 1027 / 30.34
 22:55 Mostly Cloudy  NNW 14/0 (16/0) 16(61) 61 1027 / 30.34
 21:55 Mostly Cloudy  N 12/0 (14/0) 16(61) 62 1027 / 30.33
 20:55 Mostly Cloudy  N 12/0 (14/0) 16(61) 62 1027 / 30.32
 19:55 Overcast  N 13/0 (15/0) 16(62) 67 1027 / 30.32
 19:38 Mostly Cloudy  N 12/0 (14/0) 17(62) 66 1027 / 30.32
 19:22 Mostly Cloudy  NNW 14/0 (16/0) 17(62) 69 1026 / 30.31
 18:55 Mostly Cloudy  NNW 13/0 (15/0) 17(62) 62 1026 / 30.31
 17:55 Mostly Cloudy  NNW 15/0 (17/0) 17(62) 61 1026 / 30.29
 16:55 Mostly Cloudy  NNW 14/0 (16/0) 17(63) 60 1025 / 30.28
 15:55 Mostly Cloudy  NW 14/0 (16/0) 18(64) 62 1025 / 30.27
 14:55 Mostly Cloudy  NNW 13/0 (15/0) 18(64) 64 1025 / 30.27
 13:55 Partly Cloudy  NNW 14/0 (16/0) 18(65) 56 1025 / 30.27
 12:55 Partly Cloudy  NNW 15/0 (17/0) 18(65) 59 1025 / 30.28
 11:55 Mostly Cloudy  NNW 14/0 (16/0) 18(65) 61 1026 / 30.29
 10:55 Partly Cloudy  NNW 14/0 (16/0) 18(65) 63 1025 / 30.28
 09:55 Partly Cloudy  N 16/0 (18/0) 18(65) 62 1025 / 30.28
 08:55 Mostly Cloudy  NNW 16/0 (18/0) 18(64) 68 1025 / 30.26
 07:55 Overcast  NNW 17/0 (20/0) 19(66) 84 1023 / 30.22
 06:55 Overcast Showers NNW 17/0 (20/0) 19(66) 84 1022 / 30.18
 05:55 Overcast Showers WNW 13/0 (15/0) 20(68) 87 1021 / 30.15
 05:21 Overcast Showers WNW 13/0 (15/0) 20(68) 86 1020 / 30.13
 05:02 Overcast Drizzle WNW 18/0 (21/0) 20(68) 87 1020 / 30.12
 04:55 Overcast Drizzle W 16/0 (18/0) 20(69) 95 1020 / 30.11
 04:42 Overcast Drizzle W 16/0 (18/0) 21(69) 94 1019 / 30.10
 04:21 Overcast Drizzle W 17/0 (20/0) 21(69) 94 1019 / 30.10
 04:09 Overcast Drizzle W 16/0 (18/0) 21(69) 93 1020 / 30.11
 03:55 Mostly Cloudy  W 17/0 (20/0) 21(69) 92 1020 / 30.11
 02:55 Mostly Cloudy  W 17/0 (20/0) 21(69) 91 1020 / 30.12
 02:38 Mostly Cloudy  WSW 17/0 (20/0) 21(69) 90 1020 / 30.12
 01:55 Mostly Cloudy  WSW 16/0 (18/0) 21(69) 89 1020 / 30.13
 01:01 Mostly Cloudy  WSW 16/0 (18/0) 21(69) 91 1020 / 30.12
 00:55 Partly Cloudy  WSW 17/0 (20/0) 20(69) 91 1020 / 30.12
 23:55 Mostly Cloudy  WSW 19/0 (22/0) 21(69) 91 1020 / 30.13
 22:55 Few Clouds  WSW 19/0 (22/0) 21(69) 91 1020 / 30.13
 21:55 Few Clouds  WSW 19/0 (22/0) 21(69) 90 1020 / 30.13
 20:55 Few Clouds  WSW 18/0 (21/0) 21(69) 92 1021 / 30.14
 19:55 Few Clouds  WSW 18/0 (21/0) 21(69) 91 1020 / 30.13
 18:55 Few Clouds  WSW 17/0 (20/0) 21(69) 89 1020 / 30.12
 17:55 Few Clouds  WSW 17/0 (20/0) 21(69) 89 1020 / 30.11
 16:55 Few Clouds  WSW 17/0 (20/0) 21(70) 85 1020 / 30.11
 15:55 Few Clouds  WSW 16/0 (18/0) 21(70) 85 1020 / 30.11
 14:55 Few Clouds  WSW 17/0 (20/0) 21(70) 84 1020 / 30.11
 13:55 Few Clouds  SW 19/0 (22/0) 22(72) 75 1020 / 30.11
 12:55 Few Clouds  SW 17/0 (20/0) 22(71) 76 1020 / 30.13
 11:55 Few Clouds  SW 16/0 (18/0) 21(69) 78 1021 / 30.15
 10:55 Partly Cloudy  SSW 14/0 (16/0) 21(69) 78 1021 / 30.16
 09:55 Mostly Cloudy  SSW 11/0 (13/0) 20(69) 80 1022 / 30.17
 08:55 Mostly Cloudy  SW 9/0 (10/0) 20(67) 83 1022 / 30.17
 07:55 Mostly Cloudy  SSW 10/0 (12/0) 18(64) 93 1021 / 30.15
 06:55 Mostly Cloudy  SW 4/0 (5/0) 16(60) 98 1021 / 30.14
 05:55 Partly Cloudy  VRB 2/0 (2/0) 16(60) 98 1020 / 30.13
 04:55 Partly Cloudy  VRB 1/0 (1/0) 15(60) 97 1020 / 30.11
 03:55 Few Clouds  Calm 15(59) 96 1019 / 30.09
 02:55 Partly Cloudy  WSW 2/0 (2/0) 16(62) 90 1019 / 30.10
 01:55 Partly Cloudy  NW 2/0 (2/0) 19(65) 80 1020 / 30.11
 00:55 Few Clouds  NW 4/0 (5/0) 19(66) 81 1020 / 30.12
 23:55 Few Clouds  NNW 5/0 (6/0) 19(66) 79 1020 / 30.12
 22:55 Partly Cloudy  NNW 7/0 (8/0) 19(66) 79 1020 / 30.12
 21:55 Few Clouds  NW 7/0 (8/0) 20(67) 82 1020 / 30.12
 20:55 Partly Cloudy  NW 9/0 (10/0) 20(67) 85 1020 / 30.11
 19:55 Partly Cloudy  NW 10/0 (12/0) 20(67) 85 1019 / 30.09
 18:55 Few Clouds  WNW 8/0 (9/0) 20(67) 89 1018 / 30.06
 17:55 Few Clouds  W 13/0 (15/0) 20(68) 88 1017 / 30.02
 17:28 Partly Cloudy  W 13/0 (15/0) 21(69) 91 1017 / 30.02
 16:55 Mostly Cloudy  W 16/0 (18/0) 21(70) 90 1016 / 30.00
 16:44 Mostly Cloudy  W 16/0 (18/0) 21(70) 90 1016 / 30.00
 15:55 Few Clouds  WSW 14/0 (16/0) 21(71) 89 1016 / 29.99
 15:22 Mostly Cloudy  W 16/0 (18/0) 21(70) 89 1015 / 29.98
 14:55 Partly Cloudy  W 15/0 (17/0) 21(71) 88 1015 / 29.98
 14:31 Partly Cloudy  W 15/0 (17/0) 21(71) 88 1015 / 29.98
 13:55 Few Clouds  W 14/0 (16/0) 21(71) 85 1015 / 29.98
Island AWOS